Location: Albany
(35.0000°S, 118.0000°E)
Time: 09:33:03
(UTC-04:00)

JAS-1B - Pass Details

Date: 21 February 2018
Orbit: 912 x 1743 km, 99.1° (Epoch: 25 June)

Event Time Altitude Azimuth Distance (km) Brightness Sun altitude
Rises 11:28:57 0° 172° (S) 4,489 11.2 -44.6°
Reaches altitude 10° 11:31:37 10° 176° (S) 3,608 10.5 -44.5°
Enters shadow 11:38:04 50° 209° (SSW) 1,965 8.6 -44.4°
